Location: Karcze
(52.0945°N, 22.4786°E)
Time: 18:36:12
(UTC+00:00)

A-11 Canister half - Pass Details

Date: 07 August 2021
Orbit: 1515 x 1685 km, 47.2° (Epoch: 20 September)

Event Time Altitude Azimuth Distance (km) Brightness Sun altitude
Rises 14:35:00 0° 235° (SW) 4,751 12.5 31.2°
Reaches altitude 10° 14:38:06 10° 231° (SW) 3,791 12.2 30.7°
Maximum altitude 14:47:24 54° 157° (SSE) 1,919 9.8 29.3°
Drops below altitude 10° 14:57:01 10° 84° (E) 3,922 10.7 27.9°
Sets 15:00:17 0° 81° (E) 4,925 11.1 27.4°
